www.pogodaiklimat.ru
ПОГОДА в Пангодах

Архив погоды в Пангодах (Ямало-Ненецкий АО, Россия)

Время
(UTC), дата
12 18.02
15 18.02
18 18.02
21 18.02
00 19.02
03 19.02
06 19.02
09 19.02
12 19.02
15 19.02
18 19.02
21 19.02
00 20.02
03 20.02
06 20.02
09 20.02
12 20.02
15 20.02
18 20.02
21 20.02
00 21.02
03 21.02
06 21.02
09 21.02
12 21.02
15 21.02
18 21.02
21 21.02
00 22.02
03 22.02
06 22.02
09 22.02
12 22.02
15 22.02
18 22.02
21 22.02
00 23.02
03 23.02
06 23.02
09 23.02
12 23.02
15 23.02
18 23.02
21 23.02
00 24.02
03 24.02
06 24.02
09 24.02
12 24.02
15 24.02
18 24.02
21 24.02
00 25.02
03 25.02
Ветер
(напр.,м/с)
Видим. Явления Облачность Т
(С)
Тd
(С)
f
(%)
Тe
(С)
Тes
(С)
Комфортность P
(гПа)
Po
(гПа)
Тmin
(С)
Tmax
(С)
R
(мм)
R24
(мм)
S
(см)
Ю 3 50 км {метель} 10/0 [Cs] -20.1 -23.4 75 -28 -28 1031.4 1024.2
Ю 5 10 км слаб. снег {метель} 10/0 [Cs] -19.6 -22.9 75 -30 -30 1028.6 1021.4 -19.5 0.0
ЮЗ 8 {14} 10 км слаб. снег {метель} 10/0 [Cs] -21.4 -23.2 85 -34 -34 опасность обморожения 1020.4 1013.3
ЮЗ 8 {14} 4000 м слаб. снег {метель} 10/0 [Ac trans Cs] -21.4 -23.2 85 -34 -34 опасность обморожения 1020.4 1013.3
ЮЗ 7 {14} 10 км слаб. снег {метель} 10/0 [Ac As Ci fib] -19.4 -21.3 85 -31 -31 опасность обморожения 1018.8 1011.7
З 7 {12} 10 км слаб. ливневой снег 10/6 300 м [Cb cap Cs] -18.2 -21.5 75 -29 -29 1017.2 1010.1 -22.3 0.0 65
Ю 8 {14} 10 км слаб. ливневой снег 10/6 300 м [Cb cap Ac As] -16.7 -20.1 75 -28 -28 1016.0 1009.1
Ю 7 {12} 20 км позёмок {ливн. снег, метель} 8/6 600 м [Sc Ci fib] -15.4 -20.5 65 -26 -26 1015.2 1008.1
Ю 5 {12} 20 км позёмок {ливн. снег, метель} 4/0 [Ac trans Ci fib] -16.1 -21.6 63 -25 -25 1015.0 1008.1
ЮЗ 5 {10} 20 км позёмок {метель} 3/0 [Ci fib] -16.5 -21.5 65 -26 -26 1015.4 1008.5 -15.4 0.2
ЮЗ 6 {10} 20 км позёмок {метель} 10/0 [Ac trans] -14.7 -18.1 75 -24 -24 1015.4 1008.5
ЮЗ 6 {12} 20 км позёмок {метель} 10/0 [Ac trans] -14.9 -19.2 70 -24 -24 1015.7 1008.8
ЮЗ 5 {12} 10 км снежные кристаллы {метель} 10/0 [Ac trans Ci fib] -15.2 -17.9 80 -24 -24 1016.7 1009.8
ЮЗ 5 {10} 20 км позёмок {снег, метель} 3/0 [Ci fib] -15.2 -17.2 85 -24 -24 1018.0 1011.0 -16.5 0.2 62
ЮЗ 5 {10} 50 км позёмок {снег, метель} 4/0 [Ci fib] -13.0 -15.7 80 -21 -21 1018.8 1011.8
Ю 5 {10} 50 км позёмок {метель} 4/0 [Ci fib] -10.7 -16.0 65 -19 -18 1019.3 1012.4
ЮЗ 6-12 {12} 50 км позёмок {метель} 9/0 [Ac trans Cc] -9.9 -11.6 87 -18 -18 1019.2 1012.4
ЮЗ 6-11 {14} 20 км позёмок {метель} 10/0 [Cs] -11.4 -12.4 92 -20 -20 1018.6 1011.7 -9.7
ЮЗ 7-12 {14} 20 км позёмок {метель} 8/0 [Cs] -13.4 -14.1 94 -23 -23 1017.9 1010.9
ЮЗ 7-12 {14} 20 км позёмок 10/0 [Cs] -13.2 -13.7 96 -23 -23 1016.7 1009.8
ЮЗ 7-13 {15} 10 км слаб. снег {метель} 10/0 [Ac As] -13.4 -13.5 99 -23 -23 1016.1 1009.2
ЮЗ 7-13 {16} 20 км позёмок {снег, метель} 10/0 [Ac und] -13.4 -14.1 94 -23 -23 1015.9 1009.0 -13.7 0.4 65
ЮЗ 6-12 {14} 2000 м ливневой снег 10/6 600 м [Cb cap Ac und] -13.3 -13.5 98 -22 -22 1016.0 1009.1 -13.7
ЮЗ 6-11 {12} 2000 м снег {ливн. снег} 10/0 [Ac As] -13.2 -13.2 100 -22 -22 1017.0 1010.1
ЮЗ 5-10 {13} 4000 м слаб. снег {ливн. снег} 10/0 [Ac As] -13.6 -13.7 99 -22 -22 1018.4 1011.5
ЮЗ 4 {11} 10 км слаб. снег {метель} 10/0 [Ac As Cs] -14.1 -14.1 100 -22 -22 1020.1 1013.1 -13.1 1
ЮЗ 4 {11} 10 км слаб. снег {метель} 10/0 [Ac As Cs] -13.7 -13.7 100 -21 -21 1020.6 1013.6
ЮЗ 3 4000 м слаб. снег {метель} 10/0 [Ac As Cs] -13.1 -13.1 100 -19 -19 1021.3 1014.4
ЮЗ 3 4000 м слаб. снег {метель} 10/0 [As op] -13.6 -13.6 100 -20 -20 1021.7 1014.7
ЮЗ 3 4000 м слаб. ливневой снег 10/10 300 м [Cb cap] -13.6 -13.6 100 -20 -20 1022.0 1015.0 -14.3 1 65
ЮЗ 4 50 км слаб. ливневой снег 10/6 300 м [Cb cap Cs] -14.1 -14.9 94 -22 -21 1022.2 1015.2 -14.6
ЮЗ 3 50 км {ливн. снег} 10/0 [Ac As Cs] -12.9 -13.8 93 -19 -19 1022.5 1015.6
ЮЗ 3 50 км {ливн. снег} 6/0 [Ac trans Ci fib] -16.1 -16.4 98 -23 -23 1023.9 1016.9
ЮЗ 2 20 км 3/0 [Ci fib] -20.3 -20.3 100 -26 -26 1024.9 1017.7 -12.5 0.0
ЮЗ 2 20 км 3/0 [Ci fib] -20.2 -20.2 100 -26 -26 1025.1 1018.0
Ю 1 20 км ясно -22.8 -22.8 100 -26 -26 1026.0 1018.7
ЮЗ 1 20 км 10/10 200 м [St] -23.0 -23.5 96 -26 -26 1026.7 1019.4
Ю 1 4000 м слаб. ливневой снег 10/6 300 м [Cb cap Ci fib] -20.9 -21.1 98 -24 -24 1027.3 1020.1 -24.0 0.0 65
Ю 1 50 км {ливн. снег, снег} 10/0 [Ac trans Ci fib] -20.7 -21.2 96 -24 -23 1027.3 1020.1
ЮВ 3 50 км 3/0 [Ci fib] -19.9 -20.7 93 -27 -27 1026.8 1019.6
ЮВ 2 50 км 6/0 [Ac trans Ci fib] -21.3 -21.8 96 -27 -27 1026.7 1019.5
Ю 2 20 км 4/0 [Ci fib] -18.5 -18.5 100 -24 -24 1026.4 1019.3 -18.3 0.0
Ю 2 10 км слаб. ливневой снег 10/6 [Cb cap Ci fib] -16.6 -16.6 100 -22 -22 1025.3 1018.3
Ю 2 н/о {ливн. снег, снег} н/о -19.1 -19.1 100 -25 -25 1024.9 1017.8
Ю 3 20 км ледяные иглы {ливн. снег, снег} 4/0 [Ci fib] -20.1 -20.1 100 -28 -28 1025.0 1017.8
Ю 2 50 км {снег} 6/0 [Ci fib] -21.6 -21.8 98 -28 -28 1025.8 1018.6 -21.7 0.0 65
Ю 2 50 км {снег} 10/0 [Ac trans Cc] -19.6 -20.3 94 -25 -24 1025.6 1018.5
Ю 3 50 км 9/0 [Ac trans Ci fib] -18.1 -19.2 91 -25 -25 1025.2 1018.1
Ю 3 50 км 5/0 [Ci fib] -17.8 -18.7 93 -25 -25 1025.4 1018.3
Ю 3 10 км слаб. снег 10/0 [Ac As] -17.0 -17.3 98 -24 -24 1025.1 1018.1 -17.0 0.0
Ю 3 10 км слаб. снег 10/10 300 м [St] -15.8 -15.8 100 -23 -23 1024.2 1017.2
Ю 3 2000 м снег {метель} 10/10 200 м [St] -15.0 -15.0 100 -22 -22 1023.7 1016.7
Ю 3 2000 м снег {метель} 10/10 200 м [St] -14.7 -14.7 100 -21 -21 1023.5 1016.5
Ю 2 2000 м снег {метель} 10/10 300 м [Ns] -14.0 -14.0 100 -19 -19 1024.0 1017.0 -17.0 4 66
Местоположение метеостанции Пангоды (Ямало-Ненецкий АО, Россия): широта 65.83 долгота 74.50 высота над уровнем моря 52 м.
В архиве по умолчанию представлена погода в Пангодах за последнюю неделю. Архивные данные за месяц целиком и за предыдущие месяцы, начиная с января 2011 года, Вы можете получить, выбрав интересующий диапазон дат из раскрывающегося списка и нажав кнопку "Найти!".
*Определитесь, кто Вы:
Внимание! Время в таблицах - всемирное. Для получения местного времени необходимо прибавить поправку, которая равна 5 ч.
Некоторые строки с данными для отдельных станций могут быть выделены курсивом. Это означает, что фактические данные отсутствуют по различным причинам, а приведенные значения являются расчетными модельными данными для данного пункта наблюдений.
Смотрите также архив погоды в соседних городах и на ближайших метеорологических станциях:
Партнеры нашего сайта:      
Пояснения к столбцам:
  • Ветер - указаны скорость ветра в м/с - средняя за 10 мин, порывы в срок и между сроками (в фигурных скобках) и направление, откуда дует ветер: С - северный,
  • СВ - северо-восточный, В - восточный, ЮВ - юго-восточный, Ю - южный, ЮЗ - юго-западный, З - западный, СЗ - северо-западный.
  • Видимость - горизонтальная дальность видимости в метрах или километрах. При видимости от 1 до 10 км при отсутствии осадков обычно наблюдается дымка, при ухудшении видимости до 1 км и менее - туман. В сухую погоду видимость может ухудшаться дымом, пылью или мглою.
  • Явления - указаны атмосферные явления, наблюдавшиеся в срок или в последний час перед сроком; фигурными скобками обозначены явления, наблюдавшиеся между сроками (за 1-3 часа до срока); квадратными скобками обозначены град или гололедные отложения с указанием их диаметра в мм.
  • Облачность - указаны через наклонную черту общая и нижняя облачность в баллах и высота нижней границы облаков в метрах; квадратными скобками обозначены формы облаков: Ci - перистые, Cs - перисто-слоистые, Cc - перисто-кучевые, Ac - высококучевые, As - высокослоистые, Sc - слоисто-кучевые, Ns - слоисто-дождевые, Cu - кучевые, Cb - кучево-дождевые. Подробнее классификацию облаков см. в Атласе облаков (PDF).
  • T - Температура воздуха - температура, измеренная на высоте 2 м над землей.
  • Td - Температура точки росы - температура, при понижении до которой содержащийся в воздухе водяной пар достигнет насыщения.
  • f - Относительная влажность воздуха - влажноcть воздуха, измеренная на высоте 2 м над землей.
  • Te - Эффективная температура - температура, которую ощущает одетый по сезону человек в тени. Характеристика душности погоды. При расчете учитывается влияние влажности воздуха и скорости ветра на теплоощущения человека.
  • Tes - Эффективная температура на солнце - температура, которую ощущает человек, с поправкой на солнечный нагрев. Характеристика знойности погоды. Зависит от высоты солнца над горизонтом, облачности и скорости ветра. Ночью, в пасмурную погоду, а также при ветре 12 м/с и более поправка равна нулю.
  • P - Атмосферное давление - приведенное к уровню моря атмосферное давление.
  • Po - Атмосферное давление - измеренное на уровне метеостанции атмосферное давление.
  • Tmin - Минимальная температура - минимум температуры воздуха на высоте 2 м над землей.
  • Tmax - Максимальная температура - максимум температуры воздуха на высоте 2 м над землей.
  • R - Количество осадков - Количество выпавших осадков за период времени, мм. При наведении курсора мыши на число - период времени, за который выпало указанное количество осадков.
  • R24 - Количество осадков - Количество выпавших осадков за 24 часа, мм.
  • S - Снежный покров - Высота снежного покрова, см. При наведении курсора мыши на число - состояние снежного покрова и степень покрытия местности в баллах.